This is the latest recevied weather packets stored in our database for station/object W8BS. If no packets are shown the sender has not sent any weather packets the latest 10 day(s).
| Time | Temp. | Humidity | Pressure | Rain* | Wind** | Luminosity | Snow |
|---|---|---|---|---|---|---|---|
| 1778039516 | 17.78° C | 60% | 1009.2 hPa | 0 mm | - | 0 W/m² | - |
| 1778039212 | 17.78° C | 59% | 1009.1 hPa | 0 mm | - | 0 W/m² | - |
| 1778038909 | 17.22° C | 59% | 1009.1 hPa | 0 mm | - | 0 W/m² | - |
| 1778038607 | 17.22° C | 58% | 1009.2 hPa | 0 mm | - | 0 W/m² | - |
| 1778038303 | 17.22° C | 58% | 1009.2 hPa | 0 mm | - | 0 W/m² | - |
| 1778038001 | 17.22° C | 60% | 1009.2 hPa | 0 mm | - | 0 W/m² | - |
| 1778037698 | 16.67° C | 61% | 1009.1 hPa | 0 mm | - | 0 W/m² | - |
| 1778037394 | 16.67° C | 60% | 1009.3 hPa | 0 mm | - | 0 W/m² | - |
| 1778037091 | 17.22° C | 62% | 1009.3 hPa | 0 mm | - | 0 W/m² | - |
| 1778036790 | 17.22° C | 59% | 1009.1 hPa | 0 mm | - | 0 W/m² | - |
| 1778036487 | 17.22° C | 58% | 1009.6 hPa | 0 mm | - | 0 W/m² | - |
| 1778036184 | 17.22° C | 57% | 1009.4 hPa | 0 mm | - | 0 W/m² | - |
| 1778035879 | 17.22° C | 59% | 1009.6 hPa | 0 mm | - | 0 W/m² | - |
| 1778035577 | 16.67° C | 59% | 1009.6 hPa | 0 mm | - | 0 W/m² | - |
| 1778035273 | 16.67° C | 61% | 1009.8 hPa | 0 mm | - | 0 W/m² | - |
| 1778034970 | 16.67° C | 63% | 1009.7 hPa | 0 mm | - | 0 W/m² | - |
| 1778034667 | 16.67° C | 63% | 1009.8 hPa | 0 mm | - | 0 W/m² | - |
| 1778034364 | 16.67° C | 65% | 1009.9 hPa | 0 mm | - | 0 W/m² | - |
| 1778034062 | 16.67° C | 63% | 1009.7 hPa | 0 mm | - | 0 W/m² | - |
| 1778033760 | 16.67° C | 61% | 1009.8 hPa | 0 mm | - | 0 W/m² | - |
| 1778033456 | 16.67° C | 62% | 1009.7 hPa | 0 mm | - | 0 W/m² | - |
| 1778033154 | 17.22° C | 63% | 1010 hPa | 0 mm | - | 0 W/m² | - |
| 1778032851 | 17.22° C | 63% | 1010.2 hPa | 0 mm | - | 0 W/m² | - |
| 1778032548 | 16.67° C | 62% | 1009.9 hPa | 0 mm | - | 0 W/m² | - |
| 1778032245 | 16.67° C | 62% | 1010.2 hPa | 0 mm | - | 0 W/m² | - |
* Rain latest hour (hover to see other rain measurements)
** Current wind speed in m/s (hover to see current wind gust speed)